Regional Weather Roundup
Issued by NWS Grand Forks, ND

Home | Current Version | Previous Version | Text Only | Print | Product List | Glossary On
Versions: 1 2 3 4 5 6 7 8 9 10 11 12 13 14 15 16 17 18 19 20 21 22 23 24 25 26 27 28 29 30 31 32 33 34 35 36 37 38 39 40 41 42 43 44 45 46 47 48 49 50
000
ASUS43 KFGF 190131
RWRFGF
PRAIRIE TO PINES  WEATHER ROUNDUP
NATIONAL WEATHER SERVICE EASTERN NORTH DAKOTA/GRAND FORKS ND
700 PM CST SAT NOV 18 2017

 **SATELLITE DATA USED TO AUGMENT SKY COVER AT AUTOMATED STATIONS**
 *****  WEATHER ACROSS EASTERN NORTH DAKOTA  *****

CITY           SKY/WX    TMP DP  RH WIND       PRES   REMARKS
GRAND FORKS    FAIR      17   9  70 NW10      30.06R WCI   5
GRAND FRKS AFB FAIR      17   7  66 W13       30.05S WCI   3
GRAND FRKS NWS   N/A     16 N/A N/A NW7         N/A  WCI   6
DEVILS LAKE    FAIR      13   8  81 W8        30.04F WCI   2
FARGO          FAIR      17   9  70 W12       30.08S WCI   4
WAHPETON ARPT  NOT AVBL
$$

 ***** WEATHER ACROSS CENTRAL AND WESTERN NORTH DAKOTA  *****

CITY           SKY/WX    TMP DP  RH WIND       PRES   REMARKS
BISMARCK       FAIR      28  18  66 W6        30.09F WCI  22
MINOT          FAIR      21  12  68 S3        30.02F
JAMESTOWN      FAIR      17  10  74 NW6       30.06S WCI   9
MINOT AFB      FAIR      13   9  83 CALM      30.01F
GARRISON         N/A     20  15  81 W7        30.04S WCI  11
WILLISTON      FAIR      27  18  69 W9        30.03F WCI  18
DICKINSON      FAIR      24  18  77 W6        30.04F WCI  17
HETTINGER      FAIR      24  17  74 W8        30.09F WCI  15
$$

 *****  OTHER AIRPORT OBSERVATIONS IN OUR AREA  *****

CITY           SKY/WX    TMP DP  RH WIND       PRES   REMARKS
WALHALLA       FAIR      16   5  62 NW13      30.02F WCI   2
GRAFTON AIRPOR FAIR      16   7  67 W13       30.05F WCI   2
VALLEY CITY AR FAIR      16  12  86 NW9       30.07F WCI   4
CANDO          FAIR       9   7  92 W8        30.04F WCI  -4
CAVALIER APRT  FAIR      14   5  67 W16       30.02S WCI  -2
GWINNER          N/A     16   7  67 W3        30.09S
SHEYENNE NWR     N/A     18   8  64 NW6       29.95S WCI  10
ROLLA          FAIR      12   3  67 W12       29.99S WCI  -2
 ***** THE ABOVE OBSERVATIONS ARE NON NWS ARE NOT QUALITY
       CONTROLLED AND MAY MIS-REPORT RAIN FOR SNOW...
$$

  *****  WEATHER ACROSS NORTHERN MINNESOTA  *****

CITY           SKY/WX    TMP DP  RH WIND       PRES   REMARKS
FLAG ISLAND    MOCLDY    12   7  79 W17       29.95R WCI  -5
WARROAD        FAIR      12   7  79 W8        29.98S WCI   1
ROSEAU         FAIR      14   9  79 W8        29.99S WCI   3
HALLOCK        FAIR      10   5  79 W5        30.02F WCI   2
THF RVR FALLS  FAIR      14   8  77 W13       30.02R WCI   0
BAUDETTE       CLOUDY    15   7  70 W13       29.93F WCI   1
WASKISH        CLOUDY    16  10  79 W14       29.96F WCI   1
CROOKSTON      FAIR      18  10  73 NW14      30.05F WCI   4
STEPHEN NDAWN    N/A     12   7  79 W6          N/A  WCI   3
GREENBUSH NDAW   N/A     10   5  79 W6          N/A  WCI   1
$$
  *****  WEATHER ACROSS CENTRAL AND WEST MINNESOTA  *****

CITY           SKY/WX    TMP DP  RH WIND       PRES   REMARKS
FOSSTON        FAIR      12   9  85 W10       30.02R WCI  -1
BEMIDJI        FAIR      12   7  79 W8        29.97F WCI   1
PARK RAPIDS    FAIR      15   8  73 NW16G22   29.98S WCI  -1
ELBOW LAKE     FAIR      18  10  71 NW12      30.07R WCI   5
WADENA         FAIR      16   9  73 NW12      30.00F WCI   3
DETROIT LAKES  FAIR      16  10  79 W6        30.04S WCI   7
MOORHEAD       FAIR      18   9  68 NW12      30.08F WCI   5
FERGUS FALLS   FAIR      16  10  79 NW10      30.10S WCI   3
MORRIS MN      FAIR      19  10  68 NW10      30.07R WCI   8
STAPLES        FAIR      16   9  73 NW10      30.00S WCI   3
$$
  *****  WEATHER ELSEWHERE ACROSS MINNESOTA  *****

CITY           SKY/WX    TMP DP  RH WIND       PRES   REMARKS
DULUTH         CLOUDY    19  12  74 NW16      29.87R WCI   4
INTRNTL FALLS  CLOUDY    15   8  73 W8        29.92F HAZE    WCI   4
ELY            FLURRIES  16   9  73 W10G17    29.87S WCI   3
CLOQUET        FLURRIES  19  10  68 NW14G22   29.90S WCI   6
WHEATON        FAIR      19   9  63 NW8       30.12S WCI   9
BRAINERD       FAIR      18   9  68 NW12      29.99R WCI   5
HIBBING        CLOUDY    16   9  74 NW15      29.91R WCI   1
ALEXANDRIA     FAIR      20  10  65 NW17G23   30.03R WCI   5
SAINT CLOUD    FAIR      20  12  71 NW15      30.01R WCI   6
MINNEAPOLIS    FAIR      26  16  65 NW21      29.98R WCI  12
$$

  *****  WEATHER ACROSS SOUTH DAKOTA  *****

CITY           SKY/WX    TMP DP  RH WIND       PRES   REMARKS
SIOUX FALLS    FAIR      30  17  58 NW13G22   30.11R WCI  20
BROOKINGS      FAIR      24  16  71 NW10      30.08R WCI  14
WATERTOWN      FAIR      22  13  68 NW10      30.06S WCI  11
HURON          FAIR      21  14  74 W6        30.14S WCI  13
SISSETON         N/A     18  10  71 NW7       30.09S WCI   9
ABERDEEN       FAIR      23  13  65 W8        30.13R WCI  14
MITCHELL       FAIR      25  16  68 NW7       30.17R WCI  17
PIERRE         FAIR      29  21  72 N3        30.14R
MOBRIDGE       FAIR      24  16  71 W3        30.10S
RAPID CITY     FAIR      31  20  63 N12       30.15R WCI  22
$$

  *****  SOME WEATHER IN NEARBY STATES *****

CITY           SKY/WX    TMP DP  RH WIND       PRES   REMARKS
GLASGOW MT     FAIR      33  22  63 NW5       30.02F
GREAT FALLS MT FAIR      39  17  41 SW23G32   30.04F
CHEYENNE WY    FAIR      30  14  51 W10       30.18S WCI  21
SCOTTSBLUFF NE FAIR      34  17  50 W8        30.21R
OMAHA NE       FAIR      36  24  62 N12       30.15R
DES MOINES IA  FAIR      35  25  66 NW12      30.03R
DAVENPORT IA   FAIR      36  30  79 W14       29.87R
CHICAGO IL     CLOUDY    39  30  70 N20G28    29.70R
EAU CLAIRE WI  FAIR      29  17  61 NW16      29.89R WCI  17
LA CROSSE WI   FAIR      34  21  59 NW17G31   29.87R WCI  23
$$

  *****  SOME NATIONAL WEATHER *****

CITY           SKY/WX    TMP DP  RH WIND       PRES   REMARKS
LA GUARDIA NY  LGT RAIN  51  45  79 S10       29.58F
RALEIGH NC     CLOUDY    62  51  67 SW14      29.72F
ATLANTA GA     CLOUDY    66  60  81 S14G22    29.73F
NEW ORLEANS LA FAIR      74  70  87 SW9       29.88R
OKLAHOMA CITY  FAIR      44  31  60 NW7       30.22R
ALBUQUERQUE NM FAIR      47   5  18 N7        30.33R
SALT LAKE CITY MOCLDY    36  27  69 N7        30.37S
LOS ANGELES CA FAIR      65  53  65 W14       30.06F
BOISE ID       FAIR      39  23  52 SE10      30.29F
SEATTLE WA     MOCLDY    47  38  71 S3        30.14F
$$

*** WEATHER ACROSS MANITOBA...SASKATCHEWAN AND ONTARIO ***
                ***ONTARIO***

CITY           SKY/WX    TMP DP  RH WIND       PRES   REMARKS
GERALDTON      LGT SNOW  16  12  86 N6        29.73S WCI   7
THUNDER BAY    FLURRIES  21  14  73 NW8       29.81S WCI  12
SIOUX LOOKOUT  SNOWSHWR  12   7  79 NW9G17    29.83S WCI   0
TORONTO        LGT RAIN  45  45 100 N8        29.18F FOG
BIG TROUT LK   CLOUDY     9   3  78 W8        29.74S WCI  -4
PICKLE LAKE    FLURRIES  10   5  79 W9        29.76S WCI  -2
DRYDEN         FLURRIES  12   7  79 W9        29.85S WCI   0
KENORA         FLURRIES  10   5  79 W10G18    29.91R WCI  -3
$$
                *** MANITOBA***

CITY           SKY/WX    TMP DP  RH WIND       PRES   REMARKS
BRANDON        CLEAR      7   0  72 W12       29.99S WCI  -9
DAUPHIN        CLEAR     12   3  67 W20       29.96F WCI  -6
ISLAND LAKE    MOCLDY     9   3  78 W20G32    29.77  WCI -11
PILOT MOUND      N/A     12   5  73 W5          N/A  WCI   4
THE PAS        PTCLDY     7   0  72 W12       29.89R WCI  -9
THOMPSON       FLURRIES  10   3  72 W10G18    29.71F WCI  -3
WINNIPEG       PTCLDY    10   3  72 W14       29.99S WCI  -5
LYNN LAKE      FLURRIES   9   5  85 W17G23    29.71S WCI -10
CHURCHILL      LGT SNOW   7   3  85 W20G26    29.47F DRFTSNOWWCI -13
GILLAM         LGT SNOW   9   3  78 W16       29.63  WCI  -9
$$
                ***SASKATCHEWAN***

CITY           SKY/WX    TMP DP  RH WIND       PRES   REMARKS
ESTEVAN        PTCLDY     9   3  78 SW2       29.99F
KINDERSLEY     PTCLDY     9   5  85 SW8       29.87S WCI  -4
LLOYDMINSTER   CLOUDY    19  12  73 SW12      29.77F WCI   7
PRINCE ALBERT  CLOUDY    10   3  72 VRB2      29.93F
REGINA         CLEAR     10   5  79 SE3       29.96F
YORKTON        PTCLDY     7   3  85 SW5       29.95F WCI  -2
N. BATTLEFORD  MOCLDY    12   5  73 E8        29.87F WCI   1
LA RONGE       MOCLDY     7   1  78 SW5       29.90F WCI  -2
SASKATOON      CLOUDY    12   5  73 S7        29.92F WCI   2
SWIFT CURRENT  CLEAR     30  21  69 SW16G23   29.89F WCI  19
$$
NOTE: THESE ARE AUTOMATED STATIONS WITH LIMITED QUALITY CONTROL
      "FAIR" INDICATES FEW OR NO CLOUDS BELOW 12,000 FEET WITH NO
      SIGNIFICANT WEATHER AND/OR OBSTRUCTIONS TO VISIBILITY.
      SKY/WX - SKY CONDITION AND SIGNIFICANT WEATHER.
      TMP - AIR TEMPERATURE.    DP   - DEWPOINT TEMPERATURE.
      RH  - RELATIVE HUMIDITY.  PRES - PRESSURE.
      HX  - HEAT INDEX.         WCI  - WIND CHILL INDEX.
$



USA.gov is the U.S. government's official web portal to all federal, state and local government web resources and services.